{"data":{"norad_id":64006,"intl_designator":"2025-101N","name":"STARLINK-33931","alt_names":[],"object_type":"PAYLOAD","status":"ACTIVE","operator":null,"country":"US","launch_date":"2025-05-14","launch_site_code":"AFETR","launch_vehicle":null,"mission":null,"orbit_class":"UNKNOWN","rcs_meters":null,"size_class":null,"mass_kg":null,"dimensions":null,"purposes":["comms"],"wikipedia_slug":null,"has_3d_model":false,"image_url":null,"decayed_at":null,"tle_current":{"epoch":"2026-09-20T12:05:16.910880Z","epoch_age_seconds":143263,"freshness":"FRESH","line1":"1 64006U 25101N   26263.50366795  .00011006  00000+0  40844-3 0  9995","line2":"2 64006  42.9992 337.3971 0000739 168.8395 191.2474 15.27615119 76879","mean_motion":15.27615119,"eccentricity":7.39e-5,"inclination_deg":42.9992,"raan_deg":337.3971,"arg_perigee_deg":168.8395,"mean_anomaly_deg":191.2474,"bstar":0.00040844,"rev_number":7687,"period_min":94.264581574883,"perigee_km":482.43690525288,"apogee_km":483.45097301569,"semimajor_km":6861.0809391343,"source":"CELESTRAK","updated_at":"2026-09-21T09:00:35.182169Z"}}}